| time (UTC) | temp F | wind direction | speed MPH | gust MPH | rain 1hr in | rain 24hr in | rain mn in | humidity % | barometer mb |
| 20260905154501 | 73 | 293 | 0.0 | 0.0 | 0.00 | 0.00 | 0.00 | 72 | 1013.7 |
| 20260905154001 | 72 | 293 | 0.0 | 0.0 | 0.00 | 0.00 | 0.00 | 73 | 1013.8 |
| 20260905153501 | 72 | 293 | 0.0 | 0.0 | 0.00 | 0.00 | 0.00 | 73 | 1013.8 |
| 20260905153001 | 72 | 293 | 0.0 | 0.0 | 0.00 | 0.00 | 0.00 | 72 | 1013.8 |
| 20260905152501 | 71 | 285 | 0.0 | 0.0 | 0.00 | 0.00 | 0.00 | 74 | 1013.8 |
| 20260905152001 | 71 | 285 | 0.0 | 0.0 | 0.00 | 0.00 | 0.00 | 73 | 1013.7 |
| 20260905151500 | 71 | 285 | 0.0 | 0.0 | 0.00 | 0.00 | 0.00 | 74 | 1013.6 |
| 20260905151001 | 71 | 285 | 0.0 | 0.0 | 0.00 | 0.00 | 0.00 | 73 | 1013.6 |
| 20260905150501 | 71 | 285 | 0.0 | 0.0 | 0.00 | 0.00 | 0.00 | 73 | 1013.6 |
| 20260905150001 | 71 | 285 | 0.0 | 0.0 | 0.00 | 0.00 | 0.00 | 74 | 1013.7 |
| 20260905145500 | 71 | 285 | 0.0 | 0.0 | 0.00 | 0.00 | 0.00 | 73 | 1013.7 |
| 20260905145001 | 71 | 285 | 0.0 | 0.0 | 0.00 | 0.00 | 0.00 | 74 | 1013.6 |
| 20260905144501 | 71 | 285 | 0.0 | 0.0 | 0.00 | 0.00 | 0.00 | 76 | 1013.5 |
| 20260905144001 | 71 | 285 | 0.0 | 0.0 | 0.00 | 0.00 | 0.00 | 76 | 1013.5 |
| 20260905143501 | 70 | 285 | 0.0 | 0.0 | 0.00 | 0.00 | 0.00 | 77 | 1013.6 |
| 20260905143001 | 70 | 285 | 0.0 | 0.0 | 0.00 | 0.00 | 0.00 | 78 | 1013.7 |
| 20260905142501 | 70 | 285 | 0.0 | 0.0 | 0.00 | 0.00 | 0.00 | 78 | 1013.7 |
| 20260905142001 | 70 | 285 | 0.0 | 0.0 | 0.00 | 0.00 | 0.00 | 78 | 1013.7 |
| 20260905141500 | 70 | 285 | 0.0 | 0.0 | 0.00 | 0.00 | 0.00 | 78 | 1013.7 |
| 20260905141002 | 69 | 285 | 0.0 | 0.0 | 0.00 | 0.00 | 0.00 | 80 | 1013.8 |
| 20260905140501 | 69 | 285 | 0.0 | 0.0 | 0.00 | 0.00 | 0.00 | 81 | 1013.8 |
| 20260905140001 | 69 | 281 | 0.0 | 0.0 | 0.00 | 0.00 | 0.00 | 80 | 1013.8 |
| 20260905135501 | 69 | 19 | 0.0 | 0.0 | 0.00 | 0.00 | 0.00 | 81 | 1013.8 |
| 20260905135001 | 69 | 24 | 0.0 | 0.0 | 0.00 | 0.00 | 0.00 | 81 | 1013.7 |
| 20260905134501 | 69 | 18 | 0.0 | 0.0 | 0.00 | 0.00 | 0.00 | 82 | 1013.6 |
| 20260905134002 | 69 | 30 | 0.0 | 0.0 | 0.00 | 0.00 | 0.00 | 83 | 1013.6 |
| 20260905133502 | 68 | 284 | 0.0 | 0.0 | 0.00 | 0.00 | 0.00 | 82 | 1013.6 |
| 20260905133001 | 68 | 285 | 0.0 | 0.0 | 0.00 | 0.00 | 0.00 | 84 | 1013.6 |
| 20260905132502 | 68 | 15 | 0.0 | 0.0 | 0.00 | 0.00 | 0.00 | 84 | 1013.6 |
| 20260905132001 | 68 | 24 | 0.0 | 0.0 | 0.00 | 0.00 | 0.00 | 83 | 1013.7 |
| 20260905131502 | 68 | 35 | 0.0 | 0.0 | 0.00 | 0.00 | 0.00 | 84 | 1013.7 |
| 20260905131002 | 68 | 16 | 0.0 | 0.0 | 0.00 | 0.00 | 0.00 | 86 | 1013.7 |
| 20260905130501 | 67 | 23 | 0.0 | 0.0 | 0.00 | 0.00 | 0.00 | 87 | 1013.8 |
| 20260905130002 | 67 | 285 | 0.0 | 0.0 | 0.00 | 0.00 | 0.00 | 88 | 1013.9 |
| 20260905125502 | 67 | 285 | 0.0 | 0.0 | 0.00 | 0.00 | 0.00 | 89 | 1013.9 |
| 20260905125001 | 66 | 285 | 0.0 | 0.0 | 0.00 | 0.00 | 0.00 | 90 | 1013.9 |
| 20260905124455 | 66 | 285 | 0.0 | 0.0 | 0.00 | 0.00 | 0.00 | 90 | 1013.8 |
| 20260905123949 | 65 | 285 | 0.0 | 0.0 | 0.00 | 0.00 | 0.00 | 90 | 1013.8 |
| 20260905123443 | 65 | 285 | 0.0 | 0.0 | 0.00 | 0.00 | 0.00 | 90 | 1013.8 |
| 20260905122944 | 64 | 285 | 0.0 | 0.0 | 0.00 | 0.00 | 0.00 | 90 | 1013.8 |
| 20260905122443 | 64 | 285 | 0.0 | 0.0 | 0.00 | 0.00 | 0.00 | 90 | 1013.7 |
| 20260905121941 | 63 | 285 | 0.0 | 0.0 | 0.00 | 0.00 | 0.00 | 89 | 1013.7 |
| 20260905121439 | 63 | 285 | 0.0 | 0.0 | 0.00 | 0.00 | 0.00 | 89 | 1013.7 |
| 20260905120939 | 62 | 99 | 0.0 | 0.0 | 0.00 | 0.00 | 0.00 | 89 | 1013.8 |
| 20260905120439 | 62 | 283 | 0.0 | 0.0 | 0.00 | 0.00 | 0.00 | 89 | 1013.7 |
| 20260905115937 | 61 | 20 | 0.0 | 0.0 | 0.00 | 0.00 | 0.00 | 90 | 1013.6 |
| 20260905115437 | 61 | 41 | 0.0 | 0.0 | 0.00 | 0.00 | 0.00 | 90 | 1013.5 |
| 20260905114937 | 60 | 28 | 0.0 | 0.0 | 0.00 | 0.00 | 0.00 | 90 | 1013.5 |
| 20260905114436 | 60 | 26 | 0.0 | 0.0 | 0.00 | 0.00 | 0.00 | 90 | 1013.4 |
| 20260905113933 | 60 | 284 | 0.0 | 0.0 | 0.00 | 0.00 | 0.00 | 90 | 1013.5 |
| 20260905113433 | 60 | 284 | 0.0 | 0.0 | 0.00 | 0.00 | 0.00 | 90 | 1013.4 |
| 20260905112930 | 60 | 284 | 0.0 | 0.0 | 0.00 | 0.00 | 0.00 | 90 | 1013.2 |
| 20260905112430 | 60 | 284 | 0.0 | 0.0 | 0.00 | 0.00 | 0.00 | 90 | 1013.3 |
| 20260905111929 | 60 | 284 | 0.0 | 0.0 | 0.00 | 0.00 | 0.00 | 90 | 1013.3 |
| 20260905111430 | 60 | 284 | 0.0 | 0.0 | 0.00 | 0.00 | 0.00 | 90 | 1013.4 |
| 20260905110930 | 60 | 284 | 0.0 | 0.0 | 0.00 | 0.00 | 0.00 | 90 | 1013.3 |
| 20260905110432 | 60 | 284 | 0.0 | 0.0 | 0.00 | 0.00 | 0.00 | 90 | 1013.3 |
| 20260905105930 | 60 | 284 | 0.0 | 0.0 | 0.00 | 0.00 | 0.00 | 90 | 1013.3 |
| 20260905105428 | 60 | 284 | 0.0 | 0.0 | 0.00 | 0.00 | 0.00 | 90 | 1013.3 |
| 20260905104929 | 60 | 284 | 0.0 | 0.0 | 0.00 | 0.00 | 0.00 | 90 | 1013.3 |
| 20260905104429 | 60 | 284 | 0.0 | 0.0 | 0.00 | 0.00 | 0.00 | 90 | 1013.2 |
| 20260905103929 | 60 | 284 | 0.0 | 0.0 | 0.00 | 0.00 | 0.00 | 90 | 1013.1 |
| 20260905103429 | 60 | 284 | 0.0 | 0.0 | 0.00 | 0.00 | 0.00 | 90 | 1012.9 |
| 20260905102929 | 60 | 284 | 0.0 | 0.0 | 0.00 | 0.00 | 0.00 | 90 | 1012.7 |
| 20260905102429 | 60 | 284 | 0.0 | 0.0 | 0.00 | 0.00 | 0.00 | 90 | 1012.8 |
| 20260905101929 | 60 | 284 | 0.0 | 0.0 | 0.00 | 0.00 | 0.00 | 90 | 1012.8 |
| 20260905101429 | 60 | 284 | 0.0 | 0.0 | 0.00 | 0.00 | 0.00 | 90 | 1012.6 |
| 20260905100929 | 60 | 284 | 0.0 | 0.0 | 0.00 | 0.00 | 0.00 | 90 | 1012.7 |
| 20260905100429 | 60 | 284 | 0.0 | 0.0 | 0.00 | 0.00 | 0.00 | 90 | 1012.8 |
| 20260905095928 | 60 | 284 | 0.0 | 0.0 | 0.00 | 0.00 | 0.00 | 90 | 1012.8 |
| 20260905095429 | 60 | 284 | 0.0 | 0.0 | 0.00 | 0.00 | 0.00 | 90 | 1012.7 |
| 20260905094930 | 60 | 284 | 0.0 | 0.0 | 0.00 | 0.00 | 0.00 | 90 | 1012.7 |
| 20260905094429 | 60 | 284 | 0.0 | 0.0 | 0.00 | 0.00 | 0.00 | 90 | 1012.6 |
| 20260905093929 | 60 | 284 | 0.0 | 0.0 | 0.00 | 0.00 | 0.00 | 90 | 1012.6 |
| 20260905093428 | 60 | 284 | 0.0 | 0.0 | 0.00 | 0.00 | 0.00 | 91 | 1012.6 |
| 20260905092930 | 60 | 284 | 0.0 | 0.0 | 0.00 | 0.00 | 0.00 | 91 | 1012.6 |
| 20260905092428 | 60 | 284 | 0.0 | 0.0 | 0.00 | 0.00 | 0.00 | 91 | 1012.5 |
| 20260905091929 | 60 | 284 | 0.0 | 0.0 | 0.00 | 0.00 | 0.00 | 91 | 1012.4 |
| 20260905091429 | 60 | 284 | 0.0 | 0.0 | 0.00 | 0.00 | 0.00 | 90 | 1012.5 |
| 20260905090928 | 60 | 284 | 0.0 | 0.0 | 0.00 | 0.00 | 0.00 | 90 | 1012.4 |
| 20260905090429 | 60 | 284 | 0.0 | 0.0 | 0.00 | 0.00 | 0.00 | 90 | 1012.3 |
| 20260905085929 | 60 | 285 | 0.0 | 0.0 | 0.00 | 0.00 | 0.00 | 90 | 1012.3 |
| 20260905085429 | 60 | 285 | 0.0 | 0.0 | 0.00 | 0.00 | 0.00 | 90 | 1012.3 |
| 20260905084929 | 60 | 285 | 0.0 | 0.0 | 0.00 | 0.00 | 0.00 | 90 | 1012.3 |
| 20260905084430 | 61 | 285 | 0.0 | 0.0 | 0.00 | 0.00 | 0.00 | 91 | 1012.3 |
| 20260905083929 | 61 | 285 | 0.0 | 0.0 | 0.00 | 0.00 | 0.00 | 91 | 1012.3 |
| 20260905083429 | 61 | 285 | 0.0 | 0.0 | 0.00 | 0.00 | 0.00 | 91 | 1012.3 |
| 20260905082929 | 61 | 285 | 0.0 | 0.0 | 0.00 | 0.00 | 0.00 | 91 | 1012.3 |
| 20260905082429 | 61 | 285 | 0.0 | 0.0 | 0.00 | 0.00 | 0.00 | 90 | 1012.4 |
| 20260905081929 | 61 | 285 | 0.0 | 0.0 | 0.00 | 0.00 | 0.00 | 91 | 1012.4 |
| 20260905081430 | 61 | 285 | 0.0 | 0.0 | 0.00 | 0.00 | 0.00 | 90 | 1012.4 |
| 20260905080929 | 61 | 285 | 0.0 | 0.0 | 0.00 | 0.00 | 0.00 | 90 | 1012.4 |
| 20260905080429 | 61 | 285 | 0.0 | 0.0 | 0.00 | 0.00 | 0.00 | 90 | 1012.6 |
| 20260905075929 | 61 | 285 | 0.0 | 0.0 | 0.00 | 0.00 | 0.00 | 90 | 1012.6 |
| 20260905075430 | 61 | 285 | 0.0 | 0.0 | 0.00 | 0.00 | 0.00 | 91 | 1012.7 |
| 20260905074929 | 61 | 285 | 0.0 | 0.0 | 0.00 | 0.00 | 0.00 | 91 | 1012.6 |
| 20260905074430 | 62 | 285 | 0.0 | 0.0 | 0.00 | 0.00 | 0.00 | 91 | 1012.6 |
| 20260905073930 | 62 | 285 | 0.0 | 0.0 | 0.00 | 0.00 | 0.00 | 90 | 1012.7 |
| 20260905073429 | 62 | 285 | 0.0 | 0.0 | 0.00 | 0.00 | 0.00 | 90 | 1012.6 |
| 20260905072929 | 62 | 285 | 0.0 | 0.0 | 0.00 | 0.00 | 0.00 | 90 | 1012.7 |
| 20260905072429 | 62 | 285 | 0.0 | 0.0 | 0.00 | 0.00 | 0.00 | 90 | 1012.6 |
| 20260905071929 | 62 | 285 | 0.0 | 0.0 | 0.00 | 0.00 | 0.00 | 91 | 1012.7 |
| 20260905071430 | 62 | 285 | 0.0 | 0.0 | 0.00 | 0.00 | 0.00 | 91 | 1012.8 |
| 20260905070924 | 62 | 285 | 0.0 | 0.0 | 0.00 | 0.00 | 0.00 | 90 | 1012.6 |
| 20260905070418 | 62 | 284 | 0.0 | 0.0 | 0.00 | 0.00 | 0.00 | 90 | 1012.6 |
| 20260905065913 | 62 | 284 | 0.0 | 0.0 | 0.00 | 0.00 | 0.00 | 90 | 1012.7 |
| 20260905065406 | 63 | 284 | 0.0 | 0.0 | 0.00 | 0.00 | 0.00 | 91 | 1012.7 |
| 20260905064905 | 63 | 284 | 0.0 | 0.0 | 0.00 | 0.00 | 0.00 | 91 | 1012.8 |
| 20260905064404 | 63 | 0 | 0.0 | 0.0 | 0.00 | 0.00 | 0.00 | 90 | 1012.8 |
| 20260905063902 | 63 | 0 | 0.0 | 0.0 | 0.00 | 0.00 | 0.00 | 90 | 1012.8 |
| 20260905063403 | 63 | 0 | 0.0 | 0.0 | 0.00 | 0.00 | 0.00 | 90 | 1012.9 |
| 20260905062903 | 63 | 0 | 0.0 | 0.0 | 0.00 | 0.00 | 0.00 | 90 | 1012.9 |
| 20260905062401 | 64 | 0 | 0.0 | 0.0 | 0.00 | 0.00 | 0.00 | 90 | 1012.9 |
| 20260905061902 | 64 | 0 | 0.0 | 0.0 | 0.00 | 0.00 | 0.00 | 90 | 1012.9 |
| 20260905061401 | 64 | 0 | 0.0 | 0.0 | 0.00 | 0.00 | 0.00 | 90 | 1012.9 |
| 20260905060902 | 64 | 0 | 0.0 | 0.0 | 0.00 | 0.00 | 0.00 | 90 | 1012.9 |
| 20260905060401 | 64 | 0 | 0.0 | 0.0 | 0.00 | 0.00 | 0.00 | 90 | 1013.0 |
| 20260905055902 | 64 | 0 | 0.0 | 0.0 | 0.00 | 0.00 | 0.00 | 90 | 1013.0 |
| 20260905055401 | 64 | 0 | 0.0 | 0.0 | 0.00 | 0.00 | 0.00 | 90 | 1013.1 |
| 20260905054858 | 64 | 0 | 0.0 | 0.0 | 0.00 | 0.00 | 0.00 | 90 | 1013.1 |
| 20260905054359 | 64 | 0 | 0.0 | 0.0 | 0.00 | 0.00 | 0.00 | 90 | 1013.1 |
| 20260905053859 | 64 | 0 | 0.0 | 0.0 | 0.00 | 0.00 | 0.00 | 90 | 1013.1 |
| 20260905053357 | 64 | 0 | 0.0 | 0.0 | 0.00 | 0.00 | 0.00 | 90 | 1013.0 |
| 20260905052854 | 64 | 0 | 0.0 | 0.0 | 0.00 | 0.00 | 0.00 | 90 | 1013.1 |
| 20260905052352 | 64 | 0 | 0.0 | 0.0 | 0.00 | 0.00 | 0.00 | 90 | 1013.1 |
| 20260905051852 | 64 | 0 | 0.0 | 0.0 | 0.00 | 0.00 | 0.00 | 90 | 1013.0 |
| 20260905051346 | 64 | 0 | 0.0 | 0.0 | 0.00 | 0.00 | 0.00 | 90 | 1013.0 |
| 20260905050840 | 65 | 0 | 0.0 | 0.0 | 0.00 | 0.00 | 0.00 | 89 | 1013.0 |
| 20260905050334 | 65 | 0 | 0.0 | 0.0 | 0.00 | 0.00 | 0.00 | 89 | 1013.1 |
| 20260905045835 | 65 | 0 | 0.0 | 0.0 | 0.00 | 0.00 | 0.00 | 89 | 1013.1 |
| 20260905045333 | 65 | 0 | 0.0 | 0.0 | 0.00 | 0.00 | 0.00 | 89 | 1013.1 |
| 20260905044830 | 65 | 0 | 0.0 | 0.0 | 0.00 | 0.00 | 0.00 | 89 | 1013.1 |
| 20260905044330 | 65 | 0 | 0.0 | 0.0 | 0.00 | 0.00 | 0.00 | 89 | 1013.1 |
| 20260905043830 | 65 | 0 | 0.0 | 0.0 | 0.00 | 0.00 | 0.00 | 89 | 1013.0 |
| 20260905043330 | 65 | 0 | 0.0 | 0.0 | 0.00 | 0.00 | 0.00 | 89 | 1013.1 |
| 20260905042829 | 65 | 0 | 0.0 | 0.0 | 0.00 | 0.00 | 0.00 | 89 | 1013.1 |
| 20260905042329 | 66 | 0 | 0.0 | 0.0 | 0.00 | 0.00 | 0.00 | 89 | 1013.1 |
| 20260905041828 | 66 | 0 | 0.0 | 0.0 | 0.00 | 0.00 | 0.00 | 88 | 1013.1 |
| 20260905041328 | 66 | 0 | 0.0 | 0.0 | 0.00 | 0.00 | 0.00 | 88 | 1013.1 |
| 20260905040826 | 66 | 0 | 0.0 | 0.0 | 0.00 | 0.00 | 0.00 | 88 | 1013.0 |
| 20260905040324 | 66 | 0 | 0.0 | 0.0 | 0.00 | 0.00 | 0.00 | 88 | 1013.0 |
| 20260905035821 | 66 | 0 | 0.0 | 0.0 | 0.00 | 0.00 | 0.00 | 88 | 1012.9 |
| 20260905035321 | 66 | 0 | 0.0 | 0.0 | 0.00 | 0.00 | 0.00 | 88 | 1013.0 |
| 20260905034820 | 66 | 0 | 0.0 | 0.0 | 0.00 | 0.00 | 0.00 | 88 | 1013.0 |
| 20260905034321 | 66 | 0 | 0.0 | 0.0 | 0.00 | 0.00 | 0.00 | 88 | 1013.0 |
| 20260905033817 | 66 | 0 | 0.0 | 0.0 | 0.00 | 0.00 | 0.00 | 88 | 1013.0 |
| 20260905033317 | 66 | 0 | 0.0 | 0.0 | 0.00 | 0.00 | 0.00 | 87 | 1012.9 |
| 20260905032817 | 66 | 0 | 0.0 | 0.0 | 0.00 | 0.00 | 0.00 | 87 | 1012.9 |
| 20260905032317 | 66 | 0 | 0.0 | 0.0 | 0.00 | 0.00 | 0.00 | 87 | 1013.0 |
| 20260905031816 | 66 | 0 | 0.0 | 0.0 | 0.00 | 0.00 | 0.00 | 87 | 1012.9 |
| 20260905031317 | 67 | 0 | 0.0 | 0.0 | 0.00 | 0.00 | 0.00 | 87 | 1012.9 |
| 20260905030817 | 67 | 0 | 0.0 | 0.0 | 0.00 | 0.00 | 0.00 | 87 | 1012.9 |
| 20260905030317 | 67 | 0 | 0.0 | 0.0 | 0.00 | 0.00 | 0.00 | 87 | 1012.9 |
| 20260905025817 | 67 | 0 | 0.0 | 0.0 | 0.00 | 0.00 | 0.00 | 86 | 1012.8 |
| 20260905025311 | 67 | 0 | 0.0 | 0.0 | 0.00 | 0.00 | 0.00 | 86 | 1012.9 |
| 20260905024811 | 67 | 0 | 0.0 | 0.0 | 0.00 | 0.00 | 0.00 | 86 | 1012.9 |
| 20260905024334 | 67 | 0 | 0.0 | 0.0 | 0.00 | 0.00 | 0.00 | 86 | 1012.8 |
| 20260905023809 | 68 | 0 | 0.0 | 0.0 | 0.00 | 0.00 | 0.00 | 86 | 1012.8 |
| 20260905023330 | 68 | 0 | 0.0 | 0.0 | 0.00 | 0.00 | 0.00 | 86 | 1012.9 |
| 20260905022807 | 68 | 0 | 0.0 | 0.0 | 0.00 | 0.00 | 0.00 | 86 | 1013.0 |
| 20260905022307 | 68 | 0 | 0.0 | 0.0 | 0.00 | 0.00 | 0.00 | 86 | 1012.9 |
| 20260905021806 | 68 | 0 | 0.0 | 0.0 | 0.00 | 0.00 | 0.00 | 86 | 1013.0 |
| 20260905021302 | 68 | 0 | 0.0 | 0.0 | 0.00 | 0.00 | 0.00 | 85 | 1013.0 |
| 20260905020804 | 69 | 0 | 0.0 | 0.0 | 0.00 | 0.00 | 0.00 | 85 | 1012.9 |
| 20260905020303 | 69 | 0 | 0.0 | 0.0 | 0.00 | 0.00 | 0.00 | 85 | 1013.0 |
| 20260905015804 | 69 | 0 | 0.0 | 0.0 | 0.00 | 0.00 | 0.00 | 85 | 1013.0 |
| 20260905015329 | 69 | 0 | 0.0 | 0.0 | 0.00 | 0.00 | 0.00 | 84 | 1013.0 |
| 20260905014804 | 69 | 0 | 0.0 | 0.0 | 0.00 | 0.00 | 0.00 | 84 | 1013.0 |
| 20260905014302 | 69 | 0 | 0.0 | 0.0 | 0.00 | 0.00 | 0.00 | 84 | 1013.0 |
| 20260905013803 | 69 | 0 | 0.0 | 0.0 | 0.00 | 0.00 | 0.00 | 83 | 1013.1 |
| 20260905013301 | 70 | 0 | 0.0 | 0.0 | 0.00 | 0.00 | 0.00 | 83 | 1013.1 |
| 20260905012756 | 70 | 0 | 0.0 | 0.0 | 0.00 | 0.00 | 0.00 | 83 | 1013.1 |
| 20260905012249 | 70 | 0 | 0.0 | 0.0 | 0.00 | 0.00 | 0.00 | 83 | 1012.9 |
| 20260905011745 | 70 | 0 | 0.0 | 0.0 | 0.00 | 0.00 | 0.00 | 83 | 1013.0 |
| 20260905011318 | 70 | 0 | 0.0 | 0.0 | 0.00 | 0.00 | 0.00 | 83 | 1013.0 |
| 20260905010742 | 70 | 0 | 0.0 | 0.0 | 0.00 | 0.00 | 0.00 | 83 | 1013.0 |
| 20260905010240 | 70 | 0 | 0.0 | 0.0 | 0.00 | 0.00 | 0.00 | 83 | 1013.0 |
| 20260905005739 | 71 | 0 | 0.0 | 0.0 | 0.00 | 0.00 | 0.00 | 83 | 1013.0 |
| 20260905005239 | 71 | 0 | 0.0 | 0.0 | 0.00 | 0.00 | 0.00 | 83 | 1013.1 |
| 20260905004738 | 71 | 0 | 0.0 | 0.0 | 0.00 | 0.00 | 0.00 | 82 | 1013.0 |
| 20260905004236 | 71 | 0 | 0.0 | 0.0 | 0.00 | 0.00 | 0.00 | 82 | 1012.9 |
| 20260905003734 | 71 | 0 | 0.0 | 0.0 | 0.00 | 0.00 | 0.00 | 81 | 1012.8 |
| 20260905003234 | 71 | 32 | 0.0 | 0.0 | 0.00 | 0.00 | 0.00 | 80 | 1012.8 |
| 20260905002733 | 71 | 0 | 0.0 | 0.0 | 0.00 | 0.00 | 0.00 | 80 | 1012.9 |
| 20260905002232 | 71 | 0 | 0.0 | 0.0 | 0.00 | 0.00 | 0.00 | 79 | 1012.9 |
| 20260905001731 | 71 | 0 | 0.0 | 0.0 | 0.00 | 0.01 | 0.00 | 79 | 1012.9 |
| 20260905001231 | 72 | 0 | 0.0 | 0.0 | 0.00 | 0.01 | 0.00 | 78 | 1012.9 |
| 20260905000731 | 72 | 0 | 0.0 | 0.0 | 0.00 | 0.01 | 0.00 | 78 | 1012.8 |
| 20260905000319 | 72 | 0 | 0.0 | 0.0 | 0.00 | 0.01 | 0.00 | 77 | 1012.7 |
| 20260904235736 | 72 | 34 | 0.0 | 0.0 | 0.00 | 0.01 | 0.00 | 76 | 1012.6 |
| 20260904235231 | 72 | 33 | 0.0 | 0.0 | 0.00 | 0.01 | 0.00 | 75 | 1012.6 |
| 20260904234730 | 72 | 34 | 0.0 | 0.0 | 0.00 | 0.01 | 0.00 | 74 | 1012.7 |
| 20260904234230 | 72 | 35 | 0.0 | 0.0 | 0.00 | 0.01 | 0.00 | 74 | 1012.6 |
| 20260904233730 | 73 | 0 | 0.0 | 0.0 | 0.00 | 0.01 | 0.00 | 74 | 1012.6 |
| 20260904233231 | 73 | 0 | 0.0 | 0.0 | 0.00 | 0.01 | 0.00 | 73 | 1012.5 |
| 20260904232731 | 73 | 0 | 0.0 | 0.0 | 0.00 | 0.01 | 0.00 | 72 | 1012.5 |
| 20260904232316 | 73 | 37 | 0.0 | 0.0 | 0.00 | 0.01 | 0.00 | 72 | 1012.4 |
| 20260904231730 | 73 | 0 | 0.0 | 0.0 | 0.00 | 0.01 | 0.00 | 71 | 1012.4 |
| 20260904231230 | 73 | 0 | 0.0 | 0.0 | 0.00 | 0.01 | 0.00 | 70 | 1012.4 |
| 20260904230731 | 73 | 277 | 0.0 | 0.0 | 0.00 | 0.01 | 0.00 | 70 | 1012.3 |
| 20260904230231 | 74 | 284 | 0.0 | 0.0 | 0.00 | 0.01 | 0.00 | 69 | 1012.3 |
| 20260904225730 | 74 | 284 | 0.0 | 0.0 | 0.00 | 0.01 | 0.00 | 68 | 1012.1 |
| 20260904225231 | 74 | 284 | 0.0 | 0.0 | 0.00 | 0.01 | 0.00 | 68 | 1012.0 |
| 20260904224731 | 74 | 284 | 0.0 | 0.0 | 0.00 | 0.01 | 0.00 | 66 | 1012.0 |
| 20260904224315 | 74 | 285 | 0.0 | 0.0 | 0.00 | 0.01 | 0.00 | 66 | 1011.9 |
| 20260904223731 | 74 | 285 | 0.0 | 0.0 | 0.00 | 0.01 | 0.00 | 65 | 1011.9 |
| 20260904223317 | 74 | 285 | 0.0 | 0.0 | 0.00 | 0.01 | 0.00 | 65 | 1011.9 |
| 20260904222730 | 75 | 285 | 0.0 | 0.0 | 0.00 | 0.01 | 0.00 | 64 | 1011.9 |
| 20260904222232 | 75 | 285 | 0.0 | 0.0 | 0.00 | 0.01 | 0.00 | 63 | 1011.8 |
| 20260904221731 | 75 | 285 | 0.0 | 0.0 | 0.00 | 0.01 | 0.00 | 63 | 1011.8 |
| 20260904221233 | 75 | 285 | 0.0 | 0.0 | 0.00 | 0.01 | 0.00 | 63 | 1011.8 |
| 20260904220730 | 75 | 285 | 0.0 | 0.0 | 0.00 | 0.01 | 0.00 | 63 | 1011.9 |
| 20260904220231 | 75 | 0 | 0.0 | 0.0 | 0.00 | 0.01 | 0.00 | 63 | 1011.9 |
| 20260904215803 | 75 | 285 | 0.0 | 0.0 | 0.00 | 0.01 | 0.00 | 63 | 1011.8 |
| 20260904215316 | 75 | 285 | 0.0 | 0.0 | 0.00 | 0.01 | 0.00 | 63 | 1011.8 |
| 20260904214730 | 76 | 285 | 0.0 | 0.0 | 0.00 | 0.01 | 0.00 | 62 | 1011.9 |
| 20260904214317 | 76 | 285 | 0.0 | 0.0 | 0.00 | 0.01 | 0.00 | 62 | 1011.9 |
| 20260904213730 | 76 | 285 | 0.0 | 0.0 | 0.00 | 0.01 | 0.00 | 62 | 1011.9 |
| 20260904213231 | 76 | 285 | 0.0 | 0.0 | 0.00 | 0.01 | 0.00 | 63 | 1011.9 |
| 20260904212730 | 76 | 285 | 0.0 | 0.0 | 0.00 | 0.01 | 0.00 | 62 | 1011.9 |
| 20260904212230 | 76 | 285 | 0.0 | 0.0 | 0.00 | 0.01 | 0.00 | 61 | 1012.1 |
| 20260904211731 | 76 | 285 | 0.0 | 0.0 | 0.00 | 0.01 | 0.00 | 61 | 1012.1 |
| 20260904211231 | 76 | 285 | 0.0 | 0.0 | 0.00 | 0.01 | 0.00 | 59 | 1012.3 |
| 20260904210731 | 76 | 284 | 0.0 | 0.0 | 0.00 | 0.01 | 0.00 | 61 | 1012.3 |
| 20260904210231 | 76 | 284 | 0.0 | 0.0 | 0.00 | 0.01 | 0.00 | 59 | 1012.4 |
| 20260904205729 | 76 | 284 | 0.0 | 0.0 | 0.00 | 0.01 | 0.00 | 60 | 1012.3 |
| 20260904205317 | 76 | 284 | 0.0 | 0.0 | 0.00 | 0.01 | 0.00 | 60 | 1012.4 |
| 20260904204717 | 76 | 285 | 0.0 | 0.0 | 0.00 | 0.01 | 0.00 | 60 | 1012.4 |
| 20260904204213 | 76 | 285 | 0.0 | 0.0 | 0.00 | 0.01 | 0.00 | 57 | 1012.3 |
| 20260904203713 | 76 | 285 | 0.0 | 0.0 | 0.00 | 0.01 | 0.00 | 58 | 1012.4 |
| 20260904203319 | 76 | 285 | 0.0 | 0.0 | 0.00 | 0.01 | 0.00 | 59 | 1012.4 |
| 20260904202713 | 76 | 285 | 0.0 | 0.0 | 0.00 | 0.01 | 0.00 | 59 | 1012.4 |
| 20260904202213 | 77 | 285 | 0.0 | 0.0 | 0.00 | 0.01 | 0.00 | 60 | 1012.4 |
| 20260904201714 | 76 | 285 | 0.0 | 0.0 | 0.00 | 0.01 | 0.00 | 61 | 1012.4 |
| 20260904201213 | 77 | 285 | 0.0 | 0.0 | 0.00 | 0.01 | 0.00 | 59 | 1012.5 |
| 20260904200713 | 77 | 285 | 0.0 | 0.0 | 0.00 | 0.01 | 0.00 | 59 | 1012.5 |
| 20260904200213 | 78 | 285 | 0.0 | 1.0 | 0.00 | 0.01 | 0.00 | 58 | 1012.5 |
| 20260904195713 | 78 | 285 | 0.0 | 1.0 | 0.00 | 0.01 | 0.00 | 58 | 1012.6 |
| 20260904195320 | 78 | 285 | 0.0 | 0.0 | 0.00 | 0.01 | 0.00 | 58 | 1012.7 |
| 20260904194709 | 78 | 285 | 0.0 | 1.0 | 0.00 | 0.01 | 0.00 | 59 | 1012.8 |
| 20260904194209 | 78 | 285 | 0.0 | 1.0 | 0.00 | 0.01 | 0.00 | 58 | 1012.9 |
| 20260904193756 | 78 | 284 | 0.0 | 5.0 | 0.00 | 0.01 | 0.00 | 59 | 1013.0 |
| 20260904193319 | 78 | 284 | 0.0 | 5.0 | 0.00 | 0.01 | 0.00 | 59 | 1013.0 |
| 20260904192709 | 78 | 258 | 0.0 | 0.0 | 0.00 | 0.01 | 0.00 | 60 | 1013.0 |
| 20260904192209 | 78 | 257 | 0.0 | 0.0 | 0.00 | 0.01 | 0.00 | 60 | 1013.1 |
| 20260904191709 | 78 | 257 | 0.0 | 0.0 | 0.00 | 0.01 | 0.00 | 60 | 1013.1 |
| 20260904191209 | 78 | 257 | 0.0 | 0.0 | 0.00 | 0.01 | 0.00 | 61 | 1013.1 |
| 20260904190709 | 78 | 257 | 0.0 | 0.0 | 0.00 | 0.01 | 0.00 | 63 | 1013.1 |
| 20260904190209 | 78 | 257 | 0.0 | 0.0 | 0.00 | 0.01 | 0.00 | 63 | 1013.2 |
| 20260904185709 | 78 | 257 | 0.0 | 0.0 | 0.00 | 0.01 | 0.00 | 64 | 1013.3 |
| 20260904185209 | 78 | 257 | 0.0 | 0.0 | 0.00 | 0.01 | 0.00 | 62 | 1013.4 |
| 20260904184709 | 78 | 257 | 0.0 | 0.0 | 0.00 | 0.01 | 0.00 | 62 | 1013.4 |
| 20260904184322 | 78 | 257 | 0.0 | 0.0 | 0.00 | 0.01 | 0.00 | 62 | 1013.4 |
| 20260904183709 | 78 | 254 | 0.0 | 0.0 | 0.00 | 0.01 | 0.00 | 61 | 1013.3 |
| 20260904183208 | 78 | 254 | 0.0 | 0.0 | 0.00 | 0.01 | 0.00 | 62 | 1013.5 |
| 20260904182707 | 78 | 254 | 0.0 | 0.0 | 0.00 | 0.01 | 0.00 | 62 | 1013.5 |
| 20260904182207 | 78 | 254 | 0.0 | 0.0 | 0.00 | 0.01 | 0.00 | 64 | 1013.4 |
| 20260904181710 | 77 | 254 | 0.0 | 0.0 | 0.00 | 0.01 | 0.00 | 63 | 1013.5 |
| 20260904180703 | 78 | 261 | 0.0 | 1.0 | 0.00 | 0.01 | 0.00 | 62 | 1013.5 |
| 20260904180202 | 78 | 248 | 0.0 | 0.0 | 0.00 | 0.01 | 0.00 | 64 | 1013.6 |
| 20260904175703 | 77 | 248 | 0.0 | 1.0 | 0.00 | 0.01 | 0.00 | 63 | 1013.7 |
| 20260904175202 | 77 | 250 | 0.0 | 1.0 | 0.00 | 0.01 | 0.00 | 61 | 1013.8 |
| 20260904174702 | 77 | 235 | 0.0 | 1.0 | 0.00 | 0.01 | 0.00 | 62 | 1013.8 |
| 20260904174203 | 77 | 235 | 0.0 | 1.0 | 0.00 | 0.01 | 0.00 | 62 | 1013.8 |
| 20260904173703 | 77 | 241 | 0.0 | 0.0 | 0.00 | 0.01 | 0.00 | 64 | 1013.7 |
| 20260904173202 | 77 | 242 | 0.0 | 0.0 | 0.00 | 0.01 | 0.00 | 62 | 1013.7 |
| 20260904172703 | 77 | 242 | 0.0 | 0.0 | 0.00 | 0.01 | 0.00 | 61 | 1013.9 |
| 20260904172203 | 77 | 242 | 0.0 | 0.0 | 0.00 | 0.01 | 0.00 | 64 | 1014.0 |
| 20260904171702 | 77 | 242 | 0.0 | 0.0 | 0.00 | 0.01 | 0.00 | 62 | 1013.9 |
| 20260904171204 | 77 | 242 | 0.0 | 0.0 | 0.00 | 0.01 | 0.00 | 64 | 1014.0 |
| 20260904170702 | 76 | 242 | 0.0 | 0.0 | 0.00 | 0.01 | 0.00 | 66 | 1014.0 |
| 20260904170203 | 76 | 242 | 0.0 | 0.0 | 0.00 | 0.01 | 0.00 | 64 | 1014.2 |
| 20260904165703 | 76 | 242 | 0.0 | 0.0 | 0.00 | 0.01 | 0.00 | 65 | 1014.2 |
| 20260904165203 | 76 | 240 | 0.0 | 0.0 | 0.00 | 0.01 | 0.00 | 63 | 1014.2 |
| 20260904164704 | 76 | 240 | 0.0 | 0.0 | 0.00 | 0.01 | 0.00 | 62 | 1014.2 |
| 20260904164200 | 76 | 240 | 0.0 | 0.0 | 0.00 | 0.01 | 0.00 | 64 | 1014.1 |
| 20260904163655 | 76 | 240 | 0.0 | 0.0 | 0.00 | 0.01 | 0.00 | 62 | 1014.1 |
| 20260904163315 | 76 | 240 | 0.0 | 0.0 | 0.00 | 0.01 | 0.00 | 61 | 1014.3 |
| 20260904162654 | 76 | 240 | 0.0 | 0.0 | 0.00 | 0.01 | 0.00 | 62 | 1014.3 |
| 20260904162316 | 76 | 231 | 0.0 | 0.0 | 0.00 | 0.01 | 0.00 | 63 | 1014.2 |
| 20260904161653 | 76 | 232 | 0.0 | 0.0 | 0.00 | 0.01 | 0.00 | 63 | 1014.2 |
| 20260904161151 | 75 | 232 | 0.0 | 0.0 | 0.00 | 0.01 | 0.00 | 63 | 1014.2 |
| 20260904160649 | 75 | 232 | 0.0 | 0.0 | 0.00 | 0.01 | 0.00 | 64 | 1014.1 |
| 20260904160147 | 75 | 238 | 0.0 | 0.0 | 0.00 | 0.01 | 0.00 | 63 | 1014.3 |
| 20260904155646 | 75 | 238 | 0.0 | 0.0 | 0.00 | 0.01 | 0.00 | 63 | 1014.3 |
| 20260904155142 | 75 | 236 | 0.0 | 0.0 | 0.00 | 0.01 | 0.00 | 65 | 1014.2 |